Location: Assche-ter-Heiden
(50.9174°N, 4.1574°E)
Time: 19:10:56
(UTC+00:00)

Cosmos 1953 - Pass Details

Date: 20 January 2020
Orbit: 539 x 558 km, 82.5° (Epoch: 21 February)

Event Time Altitude Azimuth Distance (km) Brightness Sun altitude
Rises 06:47:23 0° 240° (WSW) 2,733 5.5 -7.6°
Reaches altitude 10° 06:50:34 10° 268° (W) 1,847 4.4 -7.1°
Maximum altitude 06:52:37 13° 298° (WNW) 1,641 4.1 -6.8°
Drops below altitude 10° 06:54:40 10° 328° (NNW) 1,857 4.5 -6.5°
Sets 06:57:54 0° 356° (N) 2,760 5.6 -6.1°
